Alabaster, AL

3:40 PM CDT on June 27, 2017 (GMT -0500)
Shelby County

Weather History for KEET - August, 2013

Change the Weather History Date:

Thursday, August 15, 2013

  Actual Average Record
Temperature  
Mean Temperature 74 °F 80 °F  
Max Temperature 79 °F 90 °F 105 °F (2007)
Min Temperature 68 °F 70 °F 57 °F (2004)
Cooling Degree Days 9 15  
Month to date cooling degree days 225 237  
Year to date cooling degree days 1304 1367  
Since 1 June cooling degree days 1052 1098  
Growing Degree Days 24 (Base 50)    
Moisture  
Dew Point 67 °F    
Average Humidity 82    
Maximum Humidity 90    
Minimum Humidity 74    
Precipitation  
Precipitation T in 0.16 in 1.75 in (1952)
Month to date precipitation 5.24 2.23  
Year to date precipitation 45.82 35.55  
Sea Level Pressure  
Sea Level Pressure 30.00 in    
Wind  
Wind Speed 3 mph (ENE)    
Max Wind Speed 10 mph    
Max Gust Speed 16 mph    
Visibility 8 miles    
Events Rain    
T = Trace of Precipitation, MM = Missing Value Source: NWS Daily Summary

Daily Weather History Graph

Daily Weather History Graph

Search for Another Location

Airport or City:

Trip Planner

Search our weather history database for the weather conditions in past years. The results will help you decide how hot, cold, wet, or windy it might be!

Date:

Astronomy

Aug. 15, 2013 Rise Set
Actual Time 6:10 AM CDT 7:32 PM CDT
Civil Twilight 5:43 AM CDT 7:58 PM CDT
Nautical Twilight 5:12 AM CDT 8:29 PM CDT
Astronomical Twilight 4:40 AM CDT 9:02 PM CDT
Moon 2:43 PM CDT (8/15) 12:23 AM CDT (8/15)
Length of Visible Light 14h 14m
Length of Day
13h 22m
Waxing Gibbous, 64% of the Moon is Illuminated
Aug 15
Waxing Gibbous
Aug 20
Full
Aug 28
Last Quarter
Sep 5
New
Sep 12
First Quarter

Hourly Weather History & Observations

Time (CDT) Temp. Dew Point Humidity Pressure Visibility Wind Dir Wind Speed Gust Speed Precip Events Conditions
12:53 AM 71.1 °F 66.0 °F 84% 29.98 in 10.0 mi Calm Calm - N/A   Clear
1:53 AM 70.0 °F 64.9 °F 84% 29.97 in 10.0 mi Calm Calm - N/A   Clear
2:53 AM 69.1 °F 64.9 °F 87% 29.97 in 10.0 mi Calm Calm - N/A   Clear
3:53 AM 69.1 °F 63.0 °F 81% 29.96 in 10.0 mi Calm Calm - N/A   Clear
4:53 AM 69.1 °F 63.0 °F 81% 29.96 in 10.0 mi Calm Calm - N/A   Scattered Clouds
5:53 AM 69.1 °F 64.0 °F 84% 29.96 in 10.0 mi Calm Calm - N/A   Overcast
6:22 AM 69.8 °F 64.4 °F 83% 30.00 in 9.0 mi Calm Calm - N/A   Overcast
6:32 AM 69.8 °F 64.4 °F 83% 30.00 in 9.0 mi Variable 3.5 mph - N/A   Overcast
6:40 AM 68.0 °F 64.4 °F 88% 30.00 in 9.0 mi Calm Calm - N/A   Overcast
6:53 AM 69.1 °F 64.0 °F 84% 29.99 in 9.0 mi Calm Calm - N/A   Overcast
7:53 AM 70.0 °F 66.0 °F 87% 30.00 in 8.0 mi Calm Calm - N/A   Overcast
8:53 AM 72.0 °F 66.9 °F 84% 30.01 in 8.0 mi Calm Calm - N/A   Overcast
9:32 AM 73.4 °F 66.2 °F 78% 30.03 in 8.0 mi Variable 3.5 mph - N/A   Overcast
9:53 AM 75.0 °F 68.0 °F 79% 30.01 in 9.0 mi Variable 3.5 mph - N/A   Overcast
10:53 AM 75.0 °F 68.0 °F 79% 30.02 in 9.0 mi Calm Calm - N/A   Overcast
11:53 AM 75.9 °F 69.1 °F 79% 30.01 in 8.0 mi Variable 3.5 mph - N/A   Overcast
12:53 PM 77.0 °F 69.1 °F 76% 30.00 in 6.0 mi NE 5.8 mph - N/A   Haze
1:07 PM 77.0 °F 69.8 °F 78% 30.01 in 5.0 mi Variable 3.5 mph - 0.00 in Rain Light Rain
1:42 PM 77.0 °F 69.8 °F 78% 30.00 in 5.0 mi ESE 4.6 mph - 0.00 in   Haze
1:53 PM 77.0 °F 70.0 °F 79% 29.99 in 6.0 mi Calm Calm - 0.00 in   Haze
2:19 PM 78.8 °F 69.8 °F 74% 30.00 in 5.0 mi Variable 6.9 mph - N/A   Haze
2:53 PM 79.0 °F 70.0 °F 74% 29.97 in 5.0 mi NNE 4.6 mph - N/A   Haze
3:08 PM 77.0 °F 69.8 °F 78% 29.99 in 6.0 mi Variable 5.8 mph - N/A   Haze
3:53 PM 75.9 °F 69.1 °F 79% 29.98 in 7.0 mi Variable 5.8 mph - N/A   Mostly Cloudy
4:12 PM 75.2 °F 69.8 °F 83% 30.00 in 8.0 mi ENE 6.9 mph - N/A   Mostly Cloudy
4:53 PM 75.0 °F 68.0 °F 79% 29.98 in 10.0 mi East 5.8 mph - N/A   Mostly Cloudy
5:53 PM 73.9 °F 66.9 °F 79% 29.99 in 10.0 mi Variable 5.8 mph - N/A   Mostly Cloudy
6:33 PM 73.4 °F 66.2 °F 78% 30.00 in 7.0 mi Variable 6.9 mph - N/A   Partly Cloudy
6:53 PM 73.0 °F 66.9 °F 81% 29.99 in 8.0 mi Variable 4.6 mph - N/A   Partly Cloudy
7:22 PM 71.6 °F 66.2 °F 83% 30.02 in 8.0 mi ENE 4.6 mph - N/A   Mostly Cloudy
7:53 PM 71.1 °F 66.0 °F 84% 30.01 in 10.0 mi East 6.9 mph - N/A   Overcast
8:53 PM 70.0 °F 66.0 °F 87% 30.02 in 9.0 mi East 4.6 mph - N/A   Overcast
9:53 PM 70.0 °F 64.9 °F 84% 30.04 in 10.0 mi Variable 3.5 mph - N/A   Overcast
10:53 PM 70.0 °F 64.9 °F 84% 30.04 in 10.0 mi East 3.5 mph - N/A   Overcast